Regional Weather Roundup
Issued by NWS

Home | Current Version | Previous Version | Text Only | Print | Product List | Glossary On
Versions: 1 2 3 4 5 6 7 8 9 10 11 12 13 14 15 16 17 18 19 20 21 22 23 24 25 26 27 28 29 30 31 32 33 34 35 36 37 38 39 40 41 42 43 44 45 46 47 48 49 50
000
ASUS43 KOAX 230002
RWRNE

WEATHER ROUNDUP FOR NEBRASKA
NATIONAL WEATHER SERVICE OMAHA NE
700 PM CDT TUE JUL 22 2014

NOTES: SATELLITE DATA IS BEING USED TO AUGMENT CLOUD COVER ABOVE
       12000 FEET.
       "FAIR" INDICATES FEW OR NO CLOUDS BELOW 12,000 FEET WITH NO
       SIGNIFICANT WEATHER AND/OR OBSTRUCTIONS TO VISIBILITY.

  * THESE STATIONS DO NOT REPORT WEATHER SUCH AS RAIN...SNOW OR FOG.

NEZ001>004-019>022-054>056-230100-
NEBRASKA PANHANDLE

CITY           SKY/WX    TMP DP  RH WIND       PRES   REMARKS
SCOTTSBLUFF    SUNNY     91  61  36 E15       30.19F HX  91
6HR MIN TEMP:  86; 6HR MAX TEMP:  93;

ALLIANCE       SUNNY     92  52  25 SE9       30.20F
6HR MIN TEMP:  90; 6HR MAX TEMP:  94;

CHADRON        SUNNY     92  58  31 E16       30.14F HX  91
6HR MIN TEMP:  84; 6HR MAX TEMP:  95;

KIMBALL        MOSUNNY   87  50  28 SE7       30.26S
SIDNEY         SUNNY     92  53  26 SE12      30.24F
6HR MIN TEMP:  90; 6HR MAX TEMP:  96;

$$

NEZ057>060-069>072-079>082-230100-
SOUTHWEST NEBRASKA

CITY           SKY/WX    TMP DP  RH WIND       PRES   REMARKS
NORTH PLATTE   SUNNY     89  63  41 E13       30.16F HX  90
6HR MIN TEMP:  88; 6HR MAX TEMP:  92;

IMPERIAL       SUNNY     92  60  34 SE14      30.18S HX  91
6HR MIN TEMP:  88; 6HR MAX TEMP:  96;

LEXINGTON      SUNNY     89  66  46 E12       30.15S HX  91
MCCOOK         SUNNY     90  64  42 NE15      30.14S HX  91
6HR MIN TEMP:  90; 6HR MAX TEMP:  93;

OGALLALA       SUNNY     89  58  34 E14       30.19S
$$

NEZ005>010-023>029-035>040-094-230100-
NORTH CENTRAL NEBRASKA

CITY           SKY/WX    TMP DP  RH WIND       PRES   REMARKS
VALENTINE      SUNNY     86  62  44 E10       30.20F
6HR MIN TEMP:  79; 6HR MAX TEMP:  87;

AINSWORTH      SUNNY     81  60  49 E7        30.21F
BROKEN BOW     SUNNY     87  66  49 NE10      30.18S
6HR MIN TEMP:  86; 6HR MAX TEMP:  91;

O`NEILL        SUNNY     83  60  45 NE10      30.19F
ORD            SUNNY     83  67  58 NE9       30.16S
6HR MIN TEMP:  83; 6HR MAX TEMP:  89;

THEDFORD       SUNNY     87  62  42 NE10      30.21S
$$

NEZ041-046>049-061>064-073>077-083>087-230100-
SOUTH CENTRAL NEBRASKA

CITY           SKY/WX    TMP DP  RH WIND       PRES   REMARKS
GRAND ISLAND   SUNNY     85  68  56 NE10      30.15R
6HR MIN TEMP:  85; 6HR MAX TEMP:  90;

AURORA         SUNNY     86  69  57 NE12      30.14R HX  90
HASTINGS       SUNNY     86  64  47 NE14      30.13S
6HR MIN TEMP:  86; 6HR MAX TEMP:  90;

HEBRON         SUNNY     92  72  51 NE10      30.08R HX  98
HOLDREGE       SUNNY     86  63  45 NE10      30.14S
KEARNEY *      SUNNY     88  64  45 NE12      30.15S
YORK           SUNNY     84  72  65 N15       30.13R
$$

NEZ011>018-030>034-042>045-230100-
NORTHEAST NEBRASKA

CITY           SKY/WX    TMP DP  RH WIND       PRES   REMARKS
NORFOLK        MOSUNNY   83  67  58 N15       30.15S
6HR MIN TEMP:  82; 6HR MAX TEMP:  89;

ALBION         SUNNY     80  67  63 NE8       30.17S
BLAIR          MOSUNNY   83  58  41 N17       30.11R
COLUMBUS *     SUNNY     82  68  61 NE14      30.15R
FREMONT        MOSUNNY   84  68  58 N10G17    30.13R
TEKAMAH        PTSUNNY   85  68  56 N16       30.12R
6HR MIN TEMP:  83; 6HR MAX TEMP:  91;

WAYNE          SUNNY     82  70  66 N9        30.15S
$$

NEZ050>053-065>068-078-088>093-230100-
SOUTHEAST NEBRASKA

CITY           SKY/WX    TMP DP  RH WIND       PRES   REMARKS
LINCOLN        SUNNY     89  69  51 NE14      30.10R HX  93
6HR MIN TEMP:  89; 6HR MAX TEMP:  96;

OMAHA EPPLEY   MOSUNNY   85  68  56 N18       30.09R
6HR MIN TEMP:  85; 6HR MAX TEMP:  92;

BEATRICE       SUNNY     86  72  62 NE12      30.07S HX  93
FALLS CITY     SUNNY     90  80  72 N10       30.03R HX 107
6HR MIN TEMP:  90; 6HR MAX TEMP:  98;

NEBRASKA CITY  SUNNY     85  73  65 NE12      30.07R HX  92
PLATTSMOUTH    SUNNY     87  69  55 NE6       30.07S HX  90
$$

NEZ044-045-051>053-067-230100-
OMAHA AREA

CITY           SKY/WX    TMP DP  RH WIND       PRES   REMARKS
OMAHA EPPLEY   MOSUNNY   85  68  56 N18       30.09R
6HR MIN TEMP:  85; 6HR MAX TEMP:  92;

BLAIR          MOSUNNY   83  58  41 N17       30.11R
FREMONT        MOSUNNY   84  68  58 N10G17    30.13R
MILLARD        MOSUNNY   87  69  55 N7        30.09R HX  91
OFFUTT AFB     MOSUNNY   86  74  66 N9        30.08R HX  94
PLATTSMOUTH    SUNNY     87  69  55 NE6       30.07S HX  90
WAHOO          FAIR      86  67  52 N12       30.11R
$$



USA.gov is the U.S. government's official web portal to all federal, state and local government web resources and services.